User: anonymous   Login
Location: Unspecified
(0.0000°N, 0.0000°E)
Time: 12:24:54
(UTC+02:00)
Language:

Iridium 33 - Orbit

View from above orbital plane
View from above orbital plane
View from above satellite
View from above satellite

Ground track
Ground track

The orbit data is extracted from the following two-line orbital elements,

1 24946U 97051C   15247.45030582  .00000141  00000-0  44126-4 0  9990
2 24946  86.3912 199.4638 0007037 190.8194 291.4493 14.33409780940672
Epoch (UTC): 04 September 2015 10:48:26
Eccentricity: 0.0007037
inclination: 86.3912°
perigee height: 775 km
apogee height: 785 km
right ascension of ascending node: 199.4638°
argument of perigee: 190.8194°
revolutions per day: 14.33409780
mean anomaly at epoch: 291.4493°
orbit number at epoch: 94067

The dashed part of the orbit path shows where the satellite is in the earth's shadow,  

DLR